Dewpoint
24 25 24 22 22 23 23 23 28 27 26 29 31 31 30 34 23 13 34 36 36 34 34 37 38 39 40 41 42 43 42 41 40 39 39 39 39 40 40 42 43 43 44 45 45 44 44 45 45 45 46 47 50 51 52 54 55 55 56 56 56 55 56 57 57 58 57 58 58 57 57 56 56 56 55 56 55 54 55 55 56 53 53 53 53 52 53
21 23 25 26 26 25 24 26 24 27 29 29 31 33 34 34 36 36 37 36 35 35 35 36 38 39 39 38 39 40 39 39 38 37 38 37 37 37 37 38 39 40 41 42 43 44 44 42 42 41 42 42 43 45 47 49 52 54 55 56 55 55 54 55 56 56 57 57 56 57 57 57 55 55 54 55 56 55 55 54 55 55 54 54 53 54 55
23 27 27 29 28 28 27 27 27 28 28 28 30 32 34 36 36 36 36 34 32 34 36 35 35 35 34 34 33 34 35 35 36 35 35 35 34 33 33 34 35 36 37 38 39 40 42 42 42 41 41 40 40 40 40 42 44 49 52 53 54 54 54 55 55 55 55 55 55 55 56 56 55 54 54 55 56 57 56 55 56 56 56 55 56 56 55
25 25 27 26 29 27 27 29 31 31 30 29 31 28 33 34 33 35 34 31 31 33 34 32 32 32 31 31 30 31 30 30 31 30 30 30 30 31 32 33 33 33 34 35 36 36 38 38 39 40 40 39 39 39 40 38 38 40 44 47 50 52 53 54 54 54 55 56 55 55 56 55 55 55 56 56 55 56 56 57 58 58 57 56 55 56 55
25 26 26 25 28 28 25 28 31 32 30 30 30 30 33 35 37 31 27 30 33 32 31 29 29 29 28 28 28 28 28 28 27 28 29 29 30 30 30 30 32 32 31 31 34 34 33 33 33 35 37 39 40 40 41 41 39 40 39 40 40 44 46 49 51 54 54 54 55 56 56 56 56 55 55 56 56 56 57 58 58 56 56 56 55 56 56
25 26 27 29 27 21 22 31 34 34 33 30 30 30 31 33 34 30 32 32 32 31 30 29 28 28 27 29 30 30 31 29 30 29 28 28 29 32 33 34 33 33 34 35 35 35 33 31 30 34 36 35 37 40 38 38 40 40 39 39 40 40 41 41 42 45 49 51 52 53 55 56 56 55 55 55 56 57 57 57 56 56 57 56 55 55 56
24 29 30 24 22 23 30 31 31 33 32 31 30 31 31 31 31 32 30 30 30 30 29 28 27 27 25 26 25 28 31 31 31 32 31 31 31 33 35 36 36 36 37 37 39 38 38 36 36 35 30 32 33 32 36 36 37 39 39 39 42 43 43 42 42 42 41 42 47 50 52 52 54 55 56 57 56 56 56 56 57 56 56 55 56 57 57
26 24 24 20 17 27 30 30 32 32 29 30 31 31 31 32 32 32 30 29 28 27 26 26 26 25 24 24 26 27 28 30 36 34 33 32 36 37 37 36 38 39 40 40 39 42 38 34 34 34 35 35 31 29 30 33 34 36 38 38 39 41 41 40 41 41 41 42 44 46 48 51 52 54 55 55 55 57 57 56 56 57 57 57 57 57 57
21 22 23 17 28 30 29 29 28 27 27 28 28 23 26 31 31 31 29 28 27 26 25 25 25 26 25 25 24 25 25 28 29 32 33 36 37 37 36 36 37 36 38 35 37 39 39 35 33 35 34 34 33 31 28 26 28 31 35 36 36 38 39 38 39 40 41 41 42 44 46 49 49 51 53 54 55 55 55 56 56 56 56 57 57 57 57
21 20 20 20 20 19 26 30 30 30 32 30 31 28 26 30 29 29 28 27 27 27 26 26 27 29 26 26 24 25 25 27 30 28 30 29 30 30 32 32 32 34 35 33 32 34 35 35 34 34 34 34 33 33 33 30 26 27 30 32 33 34 36 36 38 37 39 38 40 43 44 44 47 51 52 51 52 53 52 53 54 55 55 55 56 56 56
20 19 18 18 17 19 28 30 30 30 27 31 33 28 22 28 28 27 27 25 25 25 26 27 29 29 26 25 24 26 28 28 29 28 28 28 29 29 31 31 31 32 33 33 31 32 34 33 33 34 34 34 32 33 33 32 31 30 31 31 32 32 34 34 35 36 38 39 39 41 42 44 47 49 50 50 50 51 52 52 55 55 55 55 55 55 55
20 19 17 16 22 23 27 29 28 25 27 32 31 19 18 29 28 27 27 26 27 27 29 29 29 27 28 23 27 29 29 30 31 30 29 30 29 27 29 31 31 30 31 30 32 32 32 33 33 32 32 30 33 33 34 33 32 33 35 35 32 32 33 34 35 36 38 38 39 39 40 42 45 47 49 49 50 49 49 48 50 52 53 54 54 54 54
20 22 19 21 23 27 28 27 28 26 29 30 21 18 23 27 27 27 27 27 27 27 27 28 26 27 28 28 31 32 29 28 29 30 31 29 28 27 28 29 32 27 27 29 28 30 30 31 31 31 30 31 31 30 32 33 33 34 36 35 35 35 34 33 33 33 35 38 40 40 40 41 42 44 46 48 48 47 47 46 48 50 52 54 53 52 52
17 18 18 17 23 28 28 27 26 28 30 20 19 25 29 28 27 27 26 27 27 28 28 27 27 28 28 29 30 29 29 30 32 29 28 29 28 28 28 31 29 28 27 30 30 30 30 29 30 30 30 31 31 30 30 31 32 33 34 35 36 34 34 33 33 34 36 38 41 42 41 42 43 43 44 46 48 48 45 45 50 52 52 51 50 50 51
22 22 21 20 19 27 29 29 26 29 26 22 25 27 26 26 26 27 27 27 28 27 26 28 29 28 28 30 30 31 31 31 30 30 29 30 27 29 29 28 26 27 27 28 28 31 30 30 31 31 32 32 31 31 31 32 32 32 34 35 34 34 35 35 36 35 36 38 39 41 42 42 42 42 43 45 47 47 46 47 48 49 50 48 48 48 48
17 17 19 20 24 27 30 30 24 25 25 25 26 26 25 26 26 26 27 28 29 29 29 29 30 31 31 32 31 31 30 31 31 30 30 29 29 29 27 26 27 28 28 28 30 31 31 31 32 32 32 32 32 32 33 32 32 33 32 32 32 33 35 36 36 35 34 35 37 39 40 41 40 42 43 44 44 45 44 44 43 45 46 47 44 42 44
23 22 23 26 28 28 27 29 27 29 30 29 28 27 26 26 27 28 29 30 31 31 31 31 31 31 31 31 31 30 31 30 30 30 28 29 30 30 30 28 30 29 27 31 30 31 31 32 32 32 32 32 33 33 34 34 32 32 33 32 32 32 33 33 34 34 36 36 36 36 37 38 40 39 41 44 43 44 44 42 40 42 43 43 41 41 41
28 28 28 29 27 28 29 29 29 29 30 29 29 28 28 29 30 30 29 30 31 31 30 29 30 30 30 30 30 30 29 29 28 30 29 28 30 30 30 30 30 30 30 31 30 32 32 32 32 33 33 32 32 33 33 33 32 32 33 33 33 33 31 32 32 31 33 34 34 34 36 35 38 38 39 41 41 42 43 43 42 42 41 38 36 37 38
23 22 28 27 28 29 28 28 29 30 31 30 29 29 30 31 31 31 32 31 32 32 30 30 30 30 30 29 30 29 29 28 29 28 29 30 30 30 30 31 31 31 30 29 30 31 32 32 31 31 32 31 31 31 30 30 30 31 30 32 33 33 34 32 33 32 33 32 32 33 34 33 34 37 35 37 42 41 44 44 46 45 44 39 36 34 36
20 24 26 28 29 29 29 27 28 27 28 30 30 31 32 33 33 33 33 32 31 31 29 29 28 28 28 28 28 27 27 28 28 27 28 29 29 30 31 31 31 30 30 30 30 31 30 30 28 29 30 30 30 31 32 32 31 31 31 31 31 31 32 33 32 32 32 31 33 33 33 34 31 31 36 38 37 41 40 41 42 44 44 45 44 42 40
24 26 27 26 27 28 27 27 28 28 28 27 30 30 31 31 31 31 31 31 30 29 29 29 29 28 28 28 28 27 27 27 27 28 28 28 29 30 30 31 31 31 31 30 31 31 31 31 32 33 33 33 31 33 33 32 33 32 32 32 32 33 32 31 32 33 33 32 32 32 33 32 30 29 32 37 37 40 43 42 42 42 45 45 47 47 44
20 21 24 26 20 20 24 27 28 29 29 29 29 29 30 30 30 30 30 30 30 30 30 29 28 28 28 28 29 27 27 27 28 28 27 28 29 29 30 30 31 30 30 31 32 32 32 33 33 33 34 34 34 32 33 33 33 34 34 33 33 33 32 32 31 30 32 32 32 32 32 31 32 37 33 33 39 43 42 37 37 40 41 46 46 49 47
17 22 24 26 24 25 26 28 29 30 30 29 30 30 30 30 30 30 30 29 30 29 29 29 28 28 28 28 28 27 26 26 27 27 27 27 28 28 29 29 30 30 32 33 33 33 33 34 34 34 34 34 35 34 34 34 34 34 34 34 33 33 32 32 32 32 31 31 33 32 32 32 32 31 36 38 32 30 33 34 36 36 37 37 39 40 47
24 25 25 25 24 22 27 28 30 29 31 30 29 30 30 30 29 29 29 29 28 27 27 28 27 27 27 28 28 28 28 27 28 29 29 29 29 29 29 29 30 31 32 33 33 33 34 34 34 34 34 34 35 34 34 34 34 34 34 34 33 33 33 33 33 32 32 32 31 31 32 32 32 31 31 36 39 35 34 35 35 35 36 37 37 37 36
21 25 26 26 25 25 28 29 31 31 32 30 29 27 29 27 26 27 27 28 27 27 26 26 26 27 29 29 29 29 28 28 28 29 29 29 28 29 29 30 31 31 32 33 33 33 34 35 35 35 35 34 34 34 34 34 34 34 34 34 34 33 33 33 33 33 32 32 32 32 33 32 33 33 32 33 33 38 37 34 34 35 36 36 36 36 36
25 28 27 25 24 26 29 24 28 30 30 30 29 28 30 31 30 28 27 27 26 26 26 26 27 28 29 29 29 29 28 28 29 29 28 28 29 29 30 31 32 32 32 33 34 34 35 35 35 35 34 34 34 34 34 34 34 34 34 34 34 34 34 34 33 33 33 33 32 32 32 31 32 32 33 35 34 36 38 37 38 36 34 35 35 35 35
23 24 24 24 24 25 25 25 23 30 31 30 28 25 28 28 31 28 27 27 26 27 27 27 27 28 28 28 29 29 28 29 28 29 28 29 30 30 31 31 32 33 33 34 34 34 34 34 34 34 34 34 34 34 33 34 34 34 34 34 34 33 33 33 34 34 34 33 33 32 32 33 33 32 34 34 34 34 34 35 34 35 38 38 34 36 36
26 26 25 21 21 22 26 27 28 30 29 25 26 25 25 25 25 24 25 25 25 26 25 26 26 27 27 28 28 28 29 28 28 29 29 30 30 31 31 32 33 33 34 34 34 34 34 34 34 34 33 34 34 34 34 34 34 35 35 35 35 35 34 34 34 34 34 34 33 33 32 32 34 33 33 34 36 34 34 34 35 32 36 35 35 33 34
26 27 27 26 26 27 28 29 30 30 28 27 28 25 25 23 21 20 21 22 23 24 24 24 26 26 27 28 28 28 28 28 29 30 30 30 31 31 32 33 33 34 34 34 34 34 34 34 34 33 33 34 34 34 34 34 35 35 36 36 36 36 35 35 35 36 35 34 34 34 32 32 32 33 34 35 36 35 34 33 33 34 38 36 36 35 35
27 29 28 29 29 28 28 28 28 28 26 28 26 25 23 21 20 19 20 20 22 22 23 24 25 25 25 27 27 28 28 28 29 30 30 30 31 31 31 32 32 33 34 34 34 34 34 33 33 33 33 34 34 34 34 35 36 36 38 38 38 39 37 36 37 36 36 36 34 33 33 33 32 33 34 35 36 34 34 32 34 36 35 37 36 36 34
29 30 30 31 30 28 26 27 27 24 25 27 25 25 23 22 21 22 22 22 21 22 23 24 25 25 25 25 26 27 29 30 30 31 31 31 31 31 30 30 31 31 32 32 33 33 33 33 33 33 33 33 33 33 34 36 36 37 39 37 37 36 34 34 34 36 36 35 34 34 34 33 33 32 33 35 36 34 33 34 36 35 33 36 37 36 35
30 31 32 31 30 28 27 26 25 24 26 26 24 24 24 24 23 24 23 23 23 24 23 24 25 26 27 25 27 30 31 31 30 30 31 31 31 31 31 31 31 31 32 32 33 33 34 34 33 34 33 33 33 34 35 36 37 38 39 35 36 36 36 33 35 35 35 34 36 35 33 33 33 33 34 35 35 34 34 35 35 32 33 33 34 38 36
28 28 28 28 27 27 26 26 24 25 26 26 26 24 22 24 25 25 25 26 25 26 26 27 28 27 28 30 31 31 31 30 30 31 31 30 31 31 31 30 31 31 32 32 33 34 34 33 33 34 33 33 34 35 35 36 37 38 37 37 36 36 35 34 34 36 35 35 35 34 33 33 34 38 35 35 35 34 34 34 34 33 33 33 34 36 37
24 23 23 25 25 24 26 24 24 26 27 27 24 23 24 25 26 24 24 24 25 25 29 30 30 32 33 32 32 31 30 28 26 27 28 29 30 30 31 31 31 32 32 33 33 33 33 33 34 33 33 34 34 35 35 35 36 38 37 38 37 36 36 36 35 34 35 34 33 33 33 34 36 36 33 34 37 36 35 35 34 33 33 34 34 33 32
27 27 26 27 28 28 29 27 27 27 27 26 25 25 25 25 24 23 25 23 25 26 28 30 31 33 32 32 32 30 28 26 26 27 28 28 29 30 30 30 31 32 32 32 33 32 33 33 33 32 32 33 34 35 35 35 36 37 37 37 37 37 37 36 35 35 35 34 35 34 35 35 35 35 33 33 37 35 34 33 33 34 34 34 33 33 32
26 26 27 28 29 29 30 28 27 28 27 25 29 28 25 25 24 24 25 27 25 24 29 31 32 32 32 31 30 30 27 26 26 27 27 28 28 28 29 30 30 31 31 31 32 32 32 33 31 31 32 34 34 35 35 34 36 37 37 37 36 36 36 35 35 34 38 38 36 35 35 35 36 35 36 35 36 34 34 35 32 31 31 33 32 32 32
27 27 29 29 29 30 31 28 26 25 25 27 27 25 24 24 25 27 26 23 23 25 29 32 32 32 31 31 30 29 27 26 25 25 25 26 27 28 29 29 29 30 30 30 30 31 32 32 31 31 33 34 34 35 35 32 35 36 36 37 37 36 36 35 36 36 35 34 34 34 34 35 36 35 34 34 35 33 31 34 33 33 32 32 32 31 30
27 29 30 29 29 30 30 29 28 27 26 27 25 25 25 25 25 26 26 25 24 24 28 31 32 32 32 30 30 30 28 27 27 27 27 28 29 29 28 26 26 28 28 28 30 30 31 31 31 32 34 35 35 35 34 32 32 35 35 35 35 35 35 35 35 35 35 36 34 35 35 35 34 34 33 34 34 32 31 31 32 32 32 32 31 30 30
28 30 29 29 28 28 28 27 25 24 24 24 24 24 25 27 27 27 25 22 22 22 23 24 25 26 28 29 29 30 30 29 28 28 28 28 29 28 24 26 25 28 28 30 30 30 32 30 31 33 34 35 35 35 34 32 32 35 34 34 35 34 35 35 35 34 34 35 35 35 35 33 34 33 33 33 32 31 31 31 32 32 32 32 33 33 33
27 29 29 28 28 28 27 26 25 25 24 25 25 25 26 26 26 25 24 22 23 22 19 21 23 23 23 23 21 25 28 29 28 28 28 27 27 27 25 25 24 28 29 29 30 30 30 30 31 33 33 34 35 34 33 33 33 34 34 34 34 33 34 34 34 34 34 34 34 33 33 33 33 32 32 31 31 31 31 31 31 31 32 33 35 33 33
27 28 28 29 29 28 28 26 25 25 24 24 25 25 26 26 27 25 24 23 22 22 19 20 21 22 21 20 20 18 21 23 25 26 27 26 24 20 18 23 23 27 28 28 29 30 30 30 31 31 33 32 34 31 32 32 34 35 35 33 33 33 33 33 34 34 34 34 34 33 33 32 32 32 32 32 31 31 31 31 31 31 32 34 36 35 33
28 28 28 28 28 29 28 28 26 24 25 25 26 27 28 28 29 27 24 21 21 20 17 20 23 23 22 21 20 18 19 21 22 23 23 21 20 18 18 24 24 25 29 29 30 30 30 31 30 30 31 30 31 31 31 32 34 34 34 33 33 33 33 33 33 33 35 35 34 33 32 32 32 32 32 32 32 31 31 31 31 31 31 31 32 32 32
28 28 28 28 28 28 28 28 29 29 28 26 25 25 26 28 29 28 26 23 22 20 17 17 24 22 21 20 20 18 18 20 21 20 21 23 21 22 21 23 24 24 29 28 28 28 28 29 29 29 29 29 30 31 31 34 33 33 33 33 33 33 33 32 32 32 33 33 33 33 32 32 32 31 31 31 31 31 31 31 31 31 31 31 31 31 31
29 28 28 27 28 28 28 29 29 30 30 29 28 27 27 28 28 28 26 24 22 20 15 15 19 21 21 20 18 16 15 17 16 13 14 16 24 27 25 20 23 24 29 28 28 28 28 28 28 28 29 30 30 30 33 33 33 32 34 33 32 33 33 33 32 32 32 32 32 32 32 32 32 32 32 31 31 32 32 32 32 32 32 32 32 31 32
29 28 28 28 28 28 27 27 28 29 31 29 27 26 26 25 26 28 27 24 23 21 19 13 16 19 20 20 19 18 15 16 15 15 13 11 10 20 24 24 24 23 27 28 28 28 27 27 27 29 29 30 30 30 31 31 32 31 32 31 32 32 32 32 32 32 32 32 32 32 32 32 32 32 32 31 31 31 32 32 32 32 32 32 32 32 32
28 27 26 29 28 27 26 27 27 27 28 29 27 26 25 26 25 27 28 26 25 23 19 16 15 16 18 20 20 19 18 18 19 20 16 16 16 20 22 23 23 26 27 28 27 27 27 29 29 29 30 30 30 31 30 30 30 31 31 30 31 30 31 31 31 31 31 31 31 31 31 31 30 30 31 31 31 31 31 31 31 32 32 31 31 31 30
27 27 27 27 26 26 26 28 29 29 30 29 29 27 27 25 26 25 26 27 26 24 20 16 16 16 18 19 17 16 14 15 18 17 20 19 20 21 23 26 25 26 27 27 26 27 26 27 28 29 29 29 30 29 29 29 30 30 29 30 30 30 30 30 30 30 31 30 30 30 30 30 30 30 30 30 30 30 30 30 30 30 30 30 30 29 29
26 27 27 27 27 28 30 31 31 29 29 28 28 28 27 28 28 27 26 27 27 26 23 21 18 19 17 19 17 18 17 14 15 15 18 19 18 19 21 19 22 28 27 27 27 27 27 27 28 29 29 29 27 27 28 28 28 28 29 29 29 28 27 28 29 30 30 29 29 30 29 29 29 29 29 29 29 29 29 29 29 29 29 29 29 29 29
25 25 27 28 28 29 30 30 29 27 25 26 28 27 27 28 28 28 28 28 28 27 23 21 18 19 19 20 19 15 15 16 15 15 17 15 20 19 20 23 27 28 25 25 29 26 26 27 27 28 29 29 26 26 27 26 27 26 26 26 27 27 27 27 28 29 28 29 29 29 29 29 29 28 28 28 29 29 28 28 28 28 28 28 28 28 28
26 26 26 25 26 27 28 27 25 25 23 24 25 27 27 29 27 27 27 27 28 26 23 19 18 18 15 15 16 15 14 15 15 17 18 17 19 18 18 20 21 24 26 24 29 24 26 26 27 26 26 26 26 26 26 26 27 27 26 26 26 27 27 27 28 28 28 28 28 28 28 28 28 28 28 28 28 28 27 27 27 28 29 28 27 27 27
26 25 26 26 26 26 27 26 25 26 25 27 27 26 29 28 25 26 27 28 26 26 25 22 17 14 13 12 12 13 14 15 14 20 17 19 19 21 21 21 20 23 22 24 26 27 24 24 24 25 25 26 24 26 26 24 24 25 26 26 27 25 26 26 26 26 26 26 26 26 26 27 27 27 27 27 27 27 27 27 27 27 26 26 26 26 27
26 26 28 26 28 26 27 26 27 26 27 27 27 28 28 27 27 26 27 28 27 27 27 24 20 16 13 12 13 11 12 12 15 15 18 19 19 17 20 22 20 18 20 23 23 25 25 22 24 25 25 24 23 23 24 24 22 22 23 24 24 23 24 25 25 25 27 25 25 26 26 26 26 26 27 27 27 27 27 27 26 26 26 26 26 26 26